Tracking 19280 objects as of 14-Nov-2018
HD Live streaming from Space Station
objects crossing your sky now

A-1 (ASTERIX)

Track A-1 (ASTERIX) now!
10-day predictions
A-1 (ASTERIX) is classified as:


NORAD ID: 1778
Int'l Code: 1965-096A
Perigee: 530.3 km
Apogee: 1,651.4 km
Inclination: 34.3 °
Period: 106.9 minutes
Semi major axis: 7461 km
RCS: 0.3783 m2 (medium)
Launch date: November 26, 1965
Source: France (FR)
Launch site: HAMMA GUIRA SPACE TRACK RANGE (HGSTR)
aabbcc
Your satellite tracking list
Your tracking list is empty




NASA's NSSDC Master Catalog

Two Line Element Set (TLE):
1  1778U 65096A   18317.31961494 +.00000041 +00000-0 +16319-4 0  9995
2  1778 034.2555 289.8191 0751175 107.3966 261.0181 13.46890004590531
Source of the keplerian elements: AFSPC